Location: Berduj
(43.0019°N, 22.3781°E)
Time: 21:37:47
(UTC+00:00)

SJ 16-02 - Pass Details

Date: 19 October 2019
Orbit: 607 x 616 km, 75.0° (Epoch: 15 November)

Event Time Altitude Azimuth Distance (km) Brightness Sun altitude
Rises 17:51:50 0° 349° (N) 2,879 5.0 -24.4°
Reaches altitude 10° 17:54:16 10° 359° (N) 1,969 4.0 -24.8°
Enters shadow 17:55:27 17° 8° (N) 1,564 3.4 -25.1°
